#timestamp,LO_Frequency,Hit,StdDev 
1513076415.4,286047007.0,N
1513076435.2,286047009.2,Y
1513076455.0,286047003.2,P
1513076455.9,286047003.2,P
1513076475.8,286047004.1,P
1513076495.6,286047005.7,Y
1513076515.5,286047003.6,P
1513076535.3,286047005.6,P
1513076555.1,286047002.8,N
1513076575.9,286046998.5,N
1513076595.7,286046999.1,N
1513076615.5,286046996.5,N
1513076635.4,286046999.1,N
1513076655.2,286046999.4,N
1513076675.1,286046996.6,N
1513076676.0,286046996.6,N
1513076695.8,286046994.9,N
1513076715.6,286046995.2,N
1513076735.5,286046999.4,N
1513076755.3,286046997.1,N
1513076775.2,286046998.9,N
1513076795.9,286046998.7,N
1513076815.7,286047003.3,N
1513076835.6,286047011.9,Y
1513076855.4,286047009.2,P
1513076875.3,286047004.7,N
1513076895.1,286047009.9,N
1513076896.0,286047009.9,N
1513076915.8,286047019.7,Y
1513076935.7,286047013.2,P
1513076955.5,286047007.2,N
1513076975.3,286047005.1,N
1513076995.2,286047005.4,N
1513077015.0,286047006.7,N
1513077015.9,286047006.7,N
1513077035.8,286047016.2,Y
1513077055.6,286047014.6,P
1513077075.4,286047023.6,P
1513077095.3,286047027.7,P
1513077115.1,286047028.8,Y
1513077135.9,286047011.2,P
1513077155.7,286047009.8,N
1513077175.5,286047011.9,P
1513077195.4,286047012.7,Y
1513077215.2,286047010.2,P
1513077235.1,286047011.9,P
1513077236.0,286047011.9,P
1513077255.8,286047022.2,Y
1513077275.6,286047014.8,P
1513077295.5,286047017.3,P
1513077315.3,286047019.6,P
1513077335.2,286047019.1,Y
1513077355.9,286047007.5,P
1513077375.7,286047004.6,N
1513077395.6,286047007.5,N
1513077415.4,286047005.6,N
1513077435.2,286047003.4,N
1513077455.1,286047005.1,N
1513077456.0,286047005.1,N
1513077475.8,286047002.3,N
1513077495.7,286046997.3,N
1513077515.5,286046991.9,N
1513077535.3,286046985.4,N
1513077555.2,286046983.7,N
1513077575.0,286046989.7,N
1513077575.9,286046989.7,N
1513077595.8,286046981.0,N
1513077615.6,286046980.3,N
1513077635.4,286046978.9,N
1513077655.3,286046983.0,N
1513077675.1,286046984.8,N
1513077695.8,286046977.8,N
1513077715.7,286046973.8,N
1513077735.5,286046980.4,N
1513077755.4,286046982.0,N
1513077775.2,286046986.5,N
1513077795.0,286046985.0,N
1513077795.9,286046985.0,N
1513077815.8,286046989.2,N
1513077835.6,286046992.7,N
1513077855.4,286046993.2,N
1513077875.3,286046994.1,N
1513077895.1,286046994.0,N
1513077915.9,286046996.0,N
1513077935.7,286046997.7,N
1513077955.5,286046997.6,N
1513077975.4,286046999.9,N
1513077995.2,286046999.5,N
1513078015.1,286046997.8,N
1513078016.0,286046997.8,N
1513078035.8,286046989.4,N
1513078055.6,286046980.2,N
1513078075.5,286046977.4,Y
1513078095.3,286046994.6,P
1513078115.1,286046998.1,N
1513078135.9,286047002.4,N
1513078155.7,286047002.1,N
1513078175.6,286047006.7,N
1513078195.4,286047006.5,N
1513078215.2,286047003.4,N
1513078235.1,286047009.3,N
1513078236.0,286047009.3,N
1513078255.8,286047012.6,N
1513078275.7,286047019.2,N
1513078295.5,286047018.9,N
1513078315.3,286047023.3,N
1513078335.2,286047023.3,N
1513078355.0,286047027.4,N
1513078355.9,286047027.4,N
1513078375.8,286047025.5,N
1513078395.6,286047029.4,N
1513078415.4,286047026.4,N
1513078435.3,286047026.3,N
1513078455.1,286047025.9,N
1513078475.8,286047022.1,N
1513078495.7,286047022.1,N
1513078515.5,286047027.1,N
1513078535.4,286047025.9,N
1513078555.2,286047032.4,N
1513078575.0,286047033.8,N
1513078575.9,286047033.8,N
1513078595.8,286047030.1,N
1513078615.6,286047032.8,N
1513078635.4,286047032.7,N
1513078655.3,286047031.7,N
1513078675.1,286047037.9,Y
1513078695.9,286047011.7,P
1513078715.7,286047004.5,N
1513078735.5,286047003.3,N
1513078755.4,286047004.8,N
1513078775.2,286047006.3,N
1513078795.1,286047013.5,N
1513078796.0,286047013.5,N
1513078815.8,286047014.9,N
1513078835.6,286047010.9,N
1513078855.5,286047011.1,N
1513078875.3,286047012.2,N
1513078895.2,286047013.5,N
1513078915.9,286047013.7,N
1513078935.7,286047011.3,N
1513078955.6,286047013.5,N
1513078975.4,286047015.5,Y
1513078995.2,286047003.0,P
1513079015.1,286047007.6,N
1513079016.0,286047007.6,N
1513079035.8,286047005.9,N
1513079055.7,286047000.3,N
1513079075.5,286046998.7,N
1513079095.3,286046998.5,N
1513079115.2,286047004.3,N
1513079135.0,286047000.8,N
1513079135.9,286047000.8,N
1513079155.8,286047000.6,N
1513079175.6,286046999.2,N
1513079195.4,286046998.6,N
1513079215.3,286046998.5,N
1513079235.1,286047002.0,N
1513079255.8,286046998.9,N
1513079275.7,286047002.5,N
1513079295.5,286046998.6,N
1513079315.4,286046995.7,N
1513079335.2,286046996.8,N
1513079355.0,286046995.0,N
1513079355.9,286046995.0,N
1513079375.8,286047002.4,N
1513079395.6,286047000.1,N
1513079415.5,286047001.1,N
1513079435.3,286046994.0,N
1513079455.1,286046994.3,N
1513079475.9,286046991.8,N
1513079495.7,286046991.7,N
1513079515.5,286046992.2,N
1513079535.4,286046996.2,N
1513079555.2,286046994.8,N
1513079575.1,286046991.4,N
1513079576.0,286046991.4,N
1513079595.8,286046990.9,N
1513079615.6,286046993.1,N
1513079635.5,286046992.6,N
1513079655.3,286046996.4,N
1513079675.2,286046994.6,N
1513079695.9,286046987.9,Y
1513079715.7,286046994.2,P
1513079735.6,286046993.9,P
1513079755.4,286046999.0,N
1513079775.2,286047000.5,N
1513079795.1,286047001.1,N
1513079796.0,286047001.1,N
1513079815.8,286046997.1,N
1513079835.7,286046998.8,N
1513079855.5,286047000.4,N
1513079875.3,286046994.7,N
1513079895.2,286046991.7,Y
1513079915.0,286046997.6,P
1513079915.9,286046997.6,P
1513079935.8,286046999.5,P
1513079955.6,286046995.3,Y
1513079975.4,286047002.7,P
1513079995.3,286047002.5,N
